CRRES DEB (CANISTER)

基本信息
目录编号:
21777
目录名称:
CRRES DEB (CANISTER)
国际标识:
1990-065Q
轨道中心:
EARTH
物体状态:
在轨
发射日期:
1990-07-25 UTC
轨道信息
数据来源: 国际轨道数据
星历时间: 2026-07-06T17:57:22+0800
半长轴: 23575.137km
偏心率: 0.694785
轨道倾角: 18.274°
近地点辐角: 107.373°
升交点赤经: 230.163°
平近点角: 0.069°
近地点: 817.348km
远地点: 33576.652km
周期: 600.401分钟
每日圈数: 2.398399
详细信息
发射场:
AFETR
轨道高度:
LEO
数据来源:
AOE Integration Group
参考系:
TEME
时间系统:
UTC
历元类型:
SGP4
2D轨道图
3D轨道图
轨道高度分析图
轨道倾角分析图
轨道综合分析图
查看轨道综合分析图